Location: Biharia
(46.4333°N, 22.8000°E)
Time: 01:33:09
(UTC+00:00)

CZ-4B R/B - Pass Details

Date: 16 October 2021
Orbit: 808 x 882 km, 99.1° (Epoch: 02 December)

Event Time Altitude Azimuth Distance (km) Brightness Sun altitude
Rises 16:50:53 0° 176° (S) 3,445 6.3 -12.9°
Reaches altitude 10° 16:53:17 10° 180° (S) 2,519 5.7 -13.3°
Maximum altitude 16:58:49 58° 259° (WSW) 1,027 4.0 -14.3°
Drops below altitude 10° 17:04:25 10° 338° (NNW) 2,552 6.0 -15.2°
Sets 17:06:53 0° 342° (NNW) 3,494 6.7 -15.7°
